User: anonymous   Login
Location: Plymouth
(43.7570°N, 71.6890°W)
Time: 06:47:29
(UTC-05:00)
Language:

Meteor 1-28 Rocket - Orbit

View from above orbital plane
View from above orbital plane
View from above satellite
View from above satellite

Ground track
Ground track

The orbit data is extracted from the following two-line orbital elements,

1 10114U 77057B   17057.83624045  .00000588  00000-0  33246-4 0  9998
2 10114  97.1980 245.6932 0013762 352.0836   8.0178 15.16610507166829
Epoch (UTC): 26 February 2017 20:04:11
Eccentricity: 0.0013762
inclination: 97.1980°
perigee height: 506 km
apogee height: 525 km
right ascension of ascending node: 245.6932°
argument of perigee: 352.0836°
revolutions per day: 15.16610507
mean anomaly at epoch: 8.0178°
orbit number at epoch: 16682

The dashed part of the orbit path shows where the satellite is in the earth's shadow,  

DLR